Datetime-UTC, Datetime-J2000, North, East, Up
2023/08/20 00:00:00, 745761600.00, 0.000000, 0.000000, 0.000000
2023/08/20 00:05:00, 745761900.00, 0.014500, -0.011800, 0.010500
2023/08/20 00:10:00, 745762200.00, 0.008200, -0.002600, -0.001000
2023/08/20 00:15:00, 745762500.00, 0.003200, -0.011500, 0.010000
2023/08/20 00:20:00, 745762800.00, -0.013000, -0.014900, 0.037200
2023/08/20 00:25:00, 745763100.00, -0.015900, -0.009100, 0.054400
2023/08/20 00:30:00, 745763400.00, -0.014000, -0.015100, 0.081600
2023/08/20 00:35:00, 745763700.00, -0.016600, -0.013100, 0.086100
2023/08/20 00:40:00, 745764000.00, -0.014500, -0.002300, 0.069200
2023/08/20 00:45:00, 745764300.00, -0.016000, -0.007600, 0.094300
2023/08/20 00:50:00, 745764600.00, -0.001600, -0.001500, 0.067700
2023/08/20 00:55:00, 745764900.00, -0.003900, -0.001100, 0.092500
2023/08/20 01:00:00, 745765200.00, -0.011400, -0.001700, 0.111900
2023/08/20 01:05:00, 745765500.00, -0.009100, 0.003500, 0.082400
2023/08/20 01:10:00, 745765800.00, -0.010400, -0.002700, 0.084000
2023/08/20 01:15:00, 745766100.00, 0.004200, 0.003600, 0.099800
2023/08/20 01:20:00, 745766400.00, 0.004500, 0.003600, 0.107000
2023/08/20 01:25:00, 745766700.00, 0.017400, 0.003600, 0.092500
2023/08/20 01:30:00, 745767000.00, 0.038300, 0.007200, 0.104400
2023/08/20 01:35:00, 745767300.00, 0.026000, 0.014800, 0.124800
2023/08/20 01:40:00, 745767600.00, 0.012000, 0.006200, 0.116500
2023/08/20 01:45:00, 745767900.00, 0.025600, 0.007900, 0.091400
2023/08/20 01:50:00, 745768200.00, 0.039700, 0.015100, 0.125600
2023/08/20 01:55:00, 745768500.00, 0.024600, 0.011100, 0.116500
2023/08/20 02:00:00, 745768800.00, 0.011900, 0.014200, 0.112700
2023/08/20 02:05:00, 745769100.00, 0.022200, 0.013200, 0.118500
2023/08/20 02:10:00, 745769400.00, 0.026600, 0.014300, 0.117400
2023/08/20 02:15:00, 745769700.00, 0.025000, 0.010500, 0.108300
2023/08/20 02:20:00, 745770000.00, 0.012100, 0.011800, 0.113800
2023/08/20 02:25:00, 745770300.00, 0.013300, 0.013700, 0.111100
2023/08/20 02:30:00, 745770600.00, 0.015200, 0.018400, 0.105100
2023/08/20 02:35:00, 745770900.00, 0.011300, 0.019500, 0.105000
2023/08/20 02:40:00, 745771200.00, 0.012600, 0.017900, 0.095600
2023/08/20 02:45:00, 745771500.00, 0.008100, 0.021600, 0.087600
2023/08/20 02:50:00, 745771800.00, 0.008200, 0.021900, 0.085200
2023/08/20 02:55:00, 745772100.00, -0.001900, 0.025900, 0.094700
2023/08/20 03:00:00, 745772400.00, 0.005100, 0.028600, 0.098300
2023/08/20 03:05:00, 745772700.00, 0.006400, 0.021600, 0.084300
2023/08/20 03:10:00, 745773000.00, 0.017800, 0.013200, 0.095900
2023/08/20 03:15:00, 745773300.00, 0.026400, 0.013500, 0.073600
2023/08/20 03:20:00, 745773600.00, -0.003700, 0.020000, 0.074800
2023/08/20 03:25:00, 745773900.00, 0.008100, 0.012800, 0.082800
2023/08/20 03:30:00, 745774200.00, -0.004700, 0.014400, 0.077900
2023/08/20 03:35:00, 745774500.00, 0.022200, 0.016500, 0.090400
2023/08/20 03:40:00, 745774800.00, 0.025400, 0.010200, 0.103100
2023/08/20 03:45:00, 745775100.00, -0.003000, 0.020400, 0.096500
2023/08/20 03:50:00, 745775400.00, 0.010400, 0.009900, 0.078900
2023/08/20 03:55:00, 745775700.00, 0.010700, 0.014600, 0.069600
2023/08/20 04:00:00, 745776000.00, 0.025400, 0.012800, 0.084200
2023/08/20 04:05:00, 745776300.00, 0.016600, 0.013700, 0.055600
2023/08/20 04:10:00, 745776600.00, 0.013800, 0.020400, 0.063800
2023/08/20 04:15:00, 745776900.00, 0.032700, 0.032500, 0.109300
2023/08/20 04:20:00, 745777200.00, 0.022700, 0.017600, 0.073400
2023/08/20 04:25:00, 745777500.00, 0.021100, 0.024000, 0.067800
2023/08/20 04:30:00, 745777800.00, 0.024200, 0.028100, 0.062000
2023/08/20 04:35:00, 745778100.00, 0.001900, 0.014300, 0.065700
2023/08/20 04:40:00, 745778400.00, -0.001900, 0.020900, 0.062400
2023/08/20 04:45:00, 745778700.00, -0.002500, 0.008500, 0.043600
2023/08/20 04:50:00, 745779000.00, 0.010500, 0.001100, 0.049100
2023/08/20 04:55:00, 745779300.00, 0.006100, 0.015700, 0.061200
2023/08/20 05:00:00, 745779600.00, 0.018500, 0.012100, 0.049900
2023/08/20 05:05:00, 745779900.00, 0.014900, 0.016100, 0.054400
2023/08/20 05:10:00, 745780200.00, 0.002300, 0.006100, 0.069200
2023/08/20 05:15:00, 745780500.00, -0.007500, 0.014100, 0.078600
2023/08/20 05:20:00, 745780800.00, 0.008200, 0.006500, 0.063900
2023/08/20 05:25:00, 745781100.00, 0.015200, 0.009100, 0.052700
2023/08/20 05:30:00, 745781400.00, 0.015900, 0.009200, 0.051600
2023/08/20 05:35:00, 745781700.00, 0.005700, 0.011900, 0.067100
2023/08/20 05:40:00, 745782000.00, 0.001200, 0.013000, 0.070100
2023/08/20 05:45:00, 745782300.00, 0.005500, 0.004700, 0.068600
2023/08/20 05:50:00, 745782600.00, 0.009600, 0.009500, 0.074000
2023/08/20 05:55:00, 745782900.00, 0.002200, 0.012100, 0.075200
2023/08/20 06:00:00, 745783200.00, 0.001900, 0.007700, 0.076300
2023/08/20 06:05:00, 745783500.00, 0.005000, 0.012300, 0.066000
2023/08/20 06:10:00, 745783800.00, 0.001200, 0.011300, 0.091600
2023/08/20 06:15:00, 745784100.00, 0.013100, 0.004200, 0.085800
2023/08/20 06:20:00, 745784400.00, 0.016500, 0.005800, 0.075500
2023/08/20 06:25:00, 745784700.00, 0.008500, 0.011800, 0.075800
2023/08/20 06:30:00, 745785000.00, 0.000300, 0.007600, 0.079600
2023/08/20 06:35:00, 745785300.00, 0.003200, 0.020500, 0.059100
2023/08/20 06:40:00, 745785600.00, 0.003500, 0.017300, 0.096000
2023/08/20 06:45:00, 745785900.00, 0.012300, 0.011000, 0.086100
2023/08/20 06:50:00, 745786200.00, 0.016800, 0.028800, 0.060200
2023/08/20 06:55:00, 745786500.00, 0.019600, 0.015700, 0.071100
2023/08/20 07:00:00, 745786800.00, 0.021400, 0.023400, 0.078500
2023/08/20 07:05:00, 745787100.00, -0.000900, 0.015600, 0.090000
2023/08/20 07:10:00, 745787400.00, 0.020900, 0.007900, 0.078100
2023/08/20 07:15:00, 745787700.00, 0.025700, 0.018100, 0.093400
2023/08/20 07:20:00, 745788000.00, 0.023600, -0.000100, 0.062600
2023/08/20 07:25:00, 745788300.00, 0.013200, 0.007900, 0.061400
2023/08/20 07:30:00, 745788600.00, 0.016600, 0.016200, 0.086700
2023/08/20 07:35:00, 745788900.00, 0.014500, 0.015800, 0.099500
2023/08/20 07:40:00, 745789200.00, 0.022400, 0.021200, 0.082400
2023/08/20 07:45:00, 745789500.00, 0.023100, 0.009500, 0.078300
2023/08/20 07:50:00, 745789800.00, 0.020300, 0.009700, 0.058100
2023/08/20 07:55:00, 745790100.00, 0.023600, 0.011700, 0.065100
2023/08/20 08:00:00, 745790400.00, 0.010600, 0.015400, 0.096100
2023/08/20 08:05:00, 745790700.00, 0.022400, 0.022000, 0.068600
2023/08/20 08:10:00, 745791000.00, 0.028600, 0.014300, 0.088400
2023/08/20 08:15:00, 745791300.00, 0.019600, 0.015100, 0.086100
2023/08/20 08:20:00, 745791600.00, 0.018300, 0.007900, 0.067000
2023/08/20 08:25:00, 745791900.00, 0.017200, 0.015200, 0.072600
2023/08/20 08:30:00, 745792200.00, 0.019900, 0.005700, 0.075800
2023/08/20 08:35:00, 745792500.00, 0.026300, 0.006700, 0.094100
2023/08/20 08:40:00, 745792800.00, 0.027600, 0.000300, 0.091800
2023/08/20 08:45:00, 745793100.00, 0.031300, 0.011500, 0.060200
2023/08/20 08:50:00, 745793400.00, 0.011100, 0.018500, 0.086700
2023/08/20 08:55:00, 745793700.00, 0.012000, 0.014800, 0.066600
2023/08/20 09:00:00, 745794000.00, 0.015300, 0.015000, 0.083400
2023/08/20 09:05:00, 745794300.00, 0.007600, 0.016500, 0.083100
2023/08/20 09:10:00, 745794600.00, 0.016100, 0.014700, 0.080700
2023/08/20 09:15:00, 745794900.00, 0.011600, 0.024100, 0.055200
2023/08/20 09:20:00, 745795200.00, 0.009000, 0.027900, 0.055200
2023/08/20 09:25:00, 745795500.00, 0.015900, 0.017100, 0.054000
2023/08/20 09:30:00, 745795800.00, 0.032500, 0.017500, 0.048100
2023/08/20 09:35:00, 745796100.00, 0.009300, 0.015600, 0.046200
2023/08/20 09:40:00, 745796400.00, 0.026600, 0.018600, 0.022700
2023/08/20 09:45:00, 745796700.00, 0.029500, 0.029000, 0.026300
2023/08/20 09:50:00, 745797000.00, 0.023700, 0.018500, 0.047300
2023/08/20 09:55:00, 745797300.00, 0.016800, 0.035700, 0.083000
2023/08/20 10:00:00, 745797600.00, 0.014800, 0.027900, 0.064600
2023/08/20 10:05:00, 745797900.00, 0.020300, 0.015400, 0.058500
2023/08/20 10:10:00, 745798200.00, 0.012400, 0.021600, 0.078900
2023/08/20 10:15:00, 745798500.00, 0.008000, 0.019600, 0.091700
2023/08/20 10:20:00, 745798800.00, 0.016200, 0.012700, 0.075000
2023/08/20 10:25:00, 745799100.00, 0.012100, 0.013100, 0.082900
2023/08/20 10:30:00, 745799400.00, 0.010200, 0.012400, 0.089500
2023/08/20 10:35:00, 745799700.00, 0.013100, 0.009300, 0.033300
2023/08/20 10:40:00, 745800000.00, 0.005400, 0.009300, 0.053300
2023/08/20 10:45:00, 745800300.00, 0.007100, 0.006700, 0.055600
2023/08/20 10:50:00, 745800600.00, 0.010400, 0.013900, 0.085100
2023/08/20 10:55:00, 745800900.00, 0.016000, 0.021300, 0.097200
2023/08/20 11:00:00, 745801200.00, 0.019600, 0.016700, 0.103600
2023/08/20 11:05:00, 745801500.00, 0.018600, 0.019400, 0.086700
2023/08/20 11:10:00, 745801800.00, 0.021000, 0.015200, 0.064400
2023/08/20 11:15:00, 745802100.00, 0.011600, 0.018800, 0.057500
2023/08/20 11:20:00, 745802400.00, 0.015900, 0.000600, 0.058000
2023/08/20 11:25:00, 745802700.00, 0.008700, 0.009400, 0.080600
2023/08/20 11:30:00, 745803000.00, 0.020100, 0.015300, 0.074800
2023/08/20 11:35:00, 745803300.00, 0.010600, 0.020000, 0.094700
2023/08/20 11:40:00, 745803600.00, 0.016500, 0.017800, 0.091300
2023/08/20 11:45:00, 745803900.00, 0.016900, 0.015500, 0.069800
2023/08/20 11:50:00, 745804200.00, 0.009000, 0.010000, 0.058200
2023/08/20 11:55:00, 745804500.00, 0.018600, 0.007400, 0.070800
2023/08/20 12:00:00, 745804800.00, 0.013700, 0.002800, 0.075500
2023/08/20 12:05:00, 745805100.00, 0.021000, 0.006400, 0.062300
2023/08/20 12:10:00, 745805400.00, 0.012100, 0.011900, 0.052100
2023/08/20 12:15:00, 745805700.00, 0.004100, 0.008400, 0.069100
2023/08/20 12:20:00, 745806000.00, 0.001300, 0.011000, 0.070200
2023/08/20 12:25:00, 745806300.00, 0.010700, 0.014400, 0.067800
2023/08/20 12:30:00, 745806600.00, 0.007100, 0.022900, 0.072700
2023/08/20 12:35:00, 745806900.00, 0.009800, 0.015500, 0.083500
2023/08/20 12:40:00, 745807200.00, 0.016000, 0.023000, 0.074500
2023/08/20 12:45:00, 745807500.00, 0.003300, 0.023400, 0.088200
2023/08/20 12:50:00, 745807800.00, 0.014200, 0.028000, 0.083400
2023/08/20 12:55:00, 745808100.00, 0.007400, 0.023600, 0.066400
2023/08/20 13:00:00, 745808400.00, 0.007300, 0.020100, 0.063800
2023/08/20 13:05:00, 745808700.00, 0.004900, 0.015600, 0.060800
2023/08/20 13:10:00, 745809000.00, 0.025100, 0.025300, 0.065000
2023/08/20 13:15:00, 745809300.00, 0.038400, 0.016500, 0.054800
2023/08/20 13:20:00, 745809600.00, 0.035400, 0.021900, 0.070800
2023/08/20 13:25:00, 745809900.00, 0.019400, 0.021500, 0.077000
2023/08/20 13:30:00, 745810200.00, 0.020200, 0.014600, 0.108300
2023/08/20 13:35:00, 745810500.00, 0.016300, 0.019600, 0.100300
2023/08/20 13:40:00, 745810800.00, 0.022100, 0.022700, 0.098200
2023/08/20 13:50:00, 745811400.00, 0.019100, 0.027300, 0.107000
2023/08/20 13:55:00, 745811700.00, 0.023000, 0.020200, 0.081200
2023/08/20 14:00:00, 745812000.00, 0.014300, 0.024300, 0.073000
2023/08/20 14:05:00, 745812300.00, 0.021500, 0.027500, 0.099800
2023/08/20 14:10:00, 745812600.00, 0.021300, 0.026100, 0.100400
2023/08/20 14:15:00, 745812900.00, 0.024500, 0.026000, 0.077300
2023/08/20 14:20:00, 745813200.00, 0.023800, 0.026500, 0.058000
2023/08/20 14:25:00, 745813500.00, 0.032000, 0.022200, 0.078600
2023/08/20 14:30:00, 745813800.00, 0.022700, 0.016200, 0.068200
2023/08/20 14:35:00, 745814100.00, 0.024800, 0.023700, 0.065400
2023/08/20 14:40:00, 745814400.00, 0.019400, 0.029200, 0.054500
2023/08/20 14:45:00, 745814700.00, 0.011600, 0.033000, 0.084200
2023/08/20 14:50:00, 745815000.00, 0.030000, 0.015300, 0.057500
2023/08/20 14:55:00, 745815300.00, 0.022100, 0.021000, 0.080200
2023/08/20 15:00:00, 745815600.00, 0.022700, 0.018600, 0.088700
2023/08/20 15:05:00, 745815900.00, 0.011900, 0.019500, 0.068500
2023/08/20 15:10:00, 745816200.00, 0.017300, 0.021600, 0.080500
2023/08/20 15:15:00, 745816500.00, 0.009200, 0.026600, 0.097900
2023/08/20 15:20:00, 745816800.00, 0.012500, 0.023000, 0.063600
2023/08/20 15:25:00, 745817100.00, 0.007200, 0.022500, 0.098400
2023/08/20 15:30:00, 745817400.00, 0.011200, 0.026400, 0.077300
2023/08/20 15:35:00, 745817700.00, 0.016900, 0.022000, 0.085100
2023/08/20 15:40:00, 745818000.00, 0.019000, 0.009900, 0.076200
2023/08/20 15:45:00, 745818300.00, 0.012200, 0.012100, 0.053800
2023/08/20 15:50:00, 745818600.00, 0.000900, 0.020400, 0.059900
2023/08/20 15:55:00, 745818900.00, -0.003800, 0.016500, 0.060000
2023/08/20 16:00:00, 745819200.00, 0.005300, 0.019200, 0.060800
2023/08/20 16:05:00, 745819500.00, 0.018400, 0.018500, 0.048300
2023/08/20 16:10:00, 745819800.00, 0.013200, 0.020600, 0.073600
2023/08/20 16:15:00, 745820100.00, 0.007200, 0.014800, 0.056600
2023/08/20 16:20:00, 745820400.00, 0.006800, 0.014800, 0.068200
2023/08/20 16:25:00, 745820700.00, 0.016700, 0.005300, 0.082100
2023/08/20 16:30:00, 745821000.00, 0.027800, 0.016900, 0.056500
2023/08/20 16:35:00, 745821300.00, 0.023000, 0.011300, 0.056800
2023/08/20 16:40:00, 745821600.00, 0.027000, 0.011100, 0.055200
2023/08/20 16:45:00, 745821900.00, 0.018900, 0.007200, 0.027200
2023/08/20 16:50:00, 745822200.00, 0.016300, 0.014100, 0.045400
2023/08/20 16:55:00, 745822500.00, 0.025600, 0.011300, 0.045600
2023/08/20 17:00:00, 745822800.00, 0.021300, 0.014200, 0.057600
2023/08/20 17:05:00, 745823100.00, 0.021100, 0.015100, 0.048300
2023/08/20 17:10:00, 745823400.00, 0.023800, 0.015000, 0.069600
2023/08/20 17:15:00, 745823700.00, 0.015600, 0.011700, 0.068600
2023/08/20 17:20:00, 745824000.00, 0.009000, 0.012300, 0.071100
2023/08/20 17:25:00, 745824300.00, 0.025900, 0.017100, 0.051800
2023/08/20 17:30:00, 745824600.00, 0.003300, 0.017000, 0.056600
2023/08/20 17:35:00, 745824900.00, 0.028100, 0.016600, 0.046600
2023/08/20 17:40:00, 745825200.00, 0.027500, 0.009600, 0.059000
2023/08/20 17:45:00, 745825500.00, 0.010700, 0.016000, 0.054200
2023/08/20 17:50:00, 745825800.00, 0.007300, 0.014000, 0.065500
2023/08/20 17:55:00, 745826100.00, 0.013500, 0.016300, 0.067700
2023/08/20 18:00:00, 745826400.00, 0.012100, 0.005500, 0.062800
2023/08/20 18:05:00, 745826700.00, -0.001500, 0.011700, 0.086400
2023/08/20 18:10:00, 745827000.00, 0.017000, 0.026800, 0.048400
2023/08/20 18:15:00, 745827300.00, 0.017200, 0.015700, 0.073000
2023/08/20 18:20:00, 745827600.00, -0.002200, 0.021600, 0.067500
2023/08/20 18:25:00, 745827900.00, 0.017900, 0.026700, 0.094400
2023/08/20 18:30:00, 745828200.00, 0.014900, 0.023400, 0.055100
2023/08/20 18:35:00, 745828500.00, 0.021500, 0.020700, 0.053300
2023/08/20 18:40:00, 745828800.00, 0.016200, 0.012300, 0.045200
2023/08/20 18:45:00, 745829100.00, 0.023500, 0.018200, 0.047300
2023/08/20 18:50:00, 745829400.00, 0.013500, 0.019600, 0.058200
2023/08/20 18:55:00, 745829700.00, 0.004900, 0.018900, 0.045300
2023/08/20 19:00:00, 745830000.00, 0.002600, 0.010700, 0.059800
2023/08/20 19:05:00, 745830300.00, 0.003000, 0.023600, 0.066400
2023/08/20 19:10:00, 745830600.00, 0.020400, 0.024500, 0.041800
2023/08/20 19:15:00, 745830900.00, 0.020000, 0.021900, 0.055200
2023/08/20 19:20:00, 745831200.00, 0.002700, 0.012700, 0.089700
2023/08/20 19:25:00, 745831500.00, 0.011200, 0.013300, 0.049600
2023/08/20 19:30:00, 745831800.00, 0.012200, 0.017800, 0.070200
2023/08/20 19:35:00, 745832100.00, 0.021500, 0.007000, 0.052100
2023/08/20 19:40:00, 745832400.00, 0.018400, 0.019100, 0.078800
2023/08/20 19:45:00, 745832700.00, 0.022300, 0.005500, 0.071200
2023/08/20 19:50:00, 745833000.00, 0.021400, -0.003700, 0.059200
2023/08/20 19:55:00, 745833300.00, 0.013500, 0.016400, 0.089400
2023/08/20 20:00:00, 745833600.00, 0.004100, 0.020000, 0.097400
2023/08/20 20:05:00, 745833900.00, 0.009600, 0.004400, 0.054200
2023/08/20 20:10:00, 745834200.00, 0.006100, 0.011300, 0.076600
2023/08/20 20:15:00, 745834500.00, 0.022400, 0.005300, 0.074500
2023/08/20 20:20:00, 745834800.00, 0.017500, 0.006500, 0.058500
2023/08/20 20:25:00, 745835100.00, 0.012500, 0.006600, 0.049900
2023/08/20 20:30:00, 745835400.00, 0.018500, 0.004700, 0.047600
2023/08/20 20:35:00, 745835700.00, 0.022900, 0.011800, 0.072000
2023/08/20 20:40:00, 745836000.00, 0.021400, 0.014700, 0.085300
2023/08/20 20:45:00, 745836300.00, 0.017300, 0.015500, 0.069000
2023/08/20 20:50:00, 745836600.00, 0.001100, 0.010300, 0.084800
2023/08/20 20:55:00, 745836900.00, 0.012900, 0.003700, 0.075800
2023/08/20 21:00:00, 745837200.00, 0.001900, 0.007700, 0.088700
2023/08/20 21:05:00, 745837500.00, -0.011900, 0.006900, 0.114300
2023/08/20 21:10:00, 745837800.00, 0.001300, 0.018700, 0.095500
2023/08/20 21:15:00, 745838100.00, -0.010000, 0.014200, 0.131400
2023/08/20 21:20:00, 745838400.00, 0.021100, 0.025200, 0.087500
2023/08/20 21:25:00, 745838700.00, -0.004700, 0.016000, 0.093600
2023/08/20 21:30:00, 745839000.00, 0.002300, 0.014000, 0.113400
2023/08/20 21:40:00, 745839600.00, 0.007300, 0.015300, 0.062100
2023/08/20 21:45:00, 745839900.00, 0.002200, 0.013600, 0.067000
2023/08/20 21:50:00, 745840200.00, 0.032300, 0.013700, 0.062300
2023/08/20 21:55:00, 745840500.00, 0.011800, 0.007700, 0.052400
2023/08/20 22:00:00, 745840800.00, 0.036000, 0.005600, 0.042900
2023/08/20 22:05:00, 745841100.00, 0.011500, 0.014500, 0.056400
2023/08/20 22:10:00, 745841400.00, -0.000700, 0.021500, 0.053000
2023/08/20 22:15:00, 745841700.00, 0.005800, 0.019400, 0.053600
2023/08/20 22:20:00, 745842000.00, 0.012800, 0.016400, 0.040000
2023/08/20 22:25:00, 745842300.00, 0.016600, 0.008200, 0.043400
2023/08/20 22:30:00, 745842600.00, 0.011300, 0.006500, 0.047600
2023/08/20 22:35:00, 745842900.00, 0.007400, 0.018300, 0.048800
2023/08/20 22:40:00, 745843200.00, 0.012000, 0.005800, 0.057900
2023/08/20 22:45:00, 745843500.00, 0.010900, 0.008100, 0.062100
2023/08/20 22:50:00, 745843800.00, 0.013300, 0.012900, 0.065300
2023/08/20 22:55:00, 745844100.00, 0.017200, 0.020000, 0.093300
2023/08/20 23:00:00, 745844400.00, 0.022400, 0.015100, 0.098200
2023/08/20 23:05:00, 745844700.00, 0.024900, 0.008200, 0.121300
2023/08/20 23:10:00, 745845000.00, 0.026900, 0.011500, 0.106800
2023/08/20 23:15:00, 745845300.00, 0.028400, 0.005800, 0.096800
2023/08/20 23:20:00, 745845600.00, 0.018900, 0.011900, 0.059000
2023/08/20 23:25:00, 745845900.00, 0.010200, 0.011500, 0.074000
2023/08/20 23:30:00, 745846200.00, 0.013200, 0.005500, 0.068700
2023/08/20 23:35:00, 745846500.00, 0.009300, 0.012700, 0.061700
2023/08/20 23:40:00, 745846800.00, 0.013600, 0.016000, 0.077800
2023/08/20 23:45:00, 745847100.00, 0.015700, 0.006800, 0.054800
2023/08/20 23:50:00, 745847400.00, 0.028300, 0.010900, 0.066200
2023/08/20 23:55:00, 745847700.00, 0.009000, 0.008100, 0.084600
